Погода в Верхней Якушке

Россия / Ульяновская область     54°07′28″N   49°52′26″E
В апреле 2022 года жителям России запретили посещать сайт meteo.paraplan.net по решению Генеральной прокуратуры. Аудитория сайта уменьшилась в 10 раз. Владельцы сайта не видят смысла в поддержке погодного сервера в таких условиях. Сайт будет закрыт в октябре.
темп.,
°C
ветер,
м/с
пор.,
м/с
влажн.,
%
обл.,
%
осадки,
мм/ч
давл.,
гПа
погр.,
м
3 октября, пн
пн301:00+14ююв6168377 0.6 1014500
04:00+15ююв7167271 1.3 1015504
07:00+12ююв71565100 0.2 1015387
10:00+14ююв8165351 0.2 1016600
13:00+18ююв9153960 0.0 1017941
16:00+18ююв9143751 0.0 10171145
19:00+16ююв81635100 0.0 1019761
22:00+14ююв71535100 0.0 1021718
4 октября, вт
вт401:00+14ююв71434100 0.0 1021547
04:00+13ююв71436100 0.0 1022476
07:00+11ююв51239100 0.0 1023359
10:00+12ююв51137100 0.0 1024569
13:00+15ююв6113097 0.0 1024717
16:00+16ююв71231100 0.0 1025704
19:00+14ю51133100 0.0 1025348
22:00+13ююв51330100 0.0 1025464
5 октября, ср
ср501:00+13ююв71230100 0.0 1025574
04:00+10ююв5960100 0.2 1026642
07:00+10ююв6126099 0.0 1025543
10:00+11ююв61247100 0.0 1024463
13:00+13ююв71238100 0.0 1023719
16:00+14ю71342100 0.0 1022895
19:00+12ю71368100 0.0 1022668
22:00+10ю61286100 0.4 1021611
6 октября, чт
чт601:00+10ю51087100 0.1 1020476
04:00+10ююз5885100 0.3 1019512
07:00+10ююз388558 0.0 1018283
10:00+12зюз467499 0.0 1017537
13:00+13зюз5661100 0.4 10161113
16:00+12зсз566099 1.0 10161099
19:00+10зсз366528 0.1 1017438
22:00+8з367593 0.1 1017268
7 октября, пт
пт701:00+8з367097 0.1 1017440
04:00+7зюз36718 0.1 1017246
07:00+7ююз3776100 0.0 1016229
10:00+8ююз51089100 0.3 1014454
13:00+11зюз61189100 0.3 1013743
16:00+12з61083100 0.3 1014991
19:00+10з61383100 0.1 1016537
22:00+10з51078100 0.2 1016792